TimeCST,TemperatureF,Dew PointF,Humidity,Sea Level PressureIn,VisibilityMPH,Wind Direction,Wind SpeedMPH,Gust SpeedMPH,PrecipitationIn,Events,Conditions,WindDirDegrees,DateUTC
12:19 AM,-9.4,-14.8,77,30.51,10.0,NW,4.6,-,N/A,,Clear,320,2014-02-11 06:19:00
12:38 AM,-9.4,-14.8,77,30.51,10.0,WNW,3.5,-,N/A,,Clear,300,2014-02-11 06:38:00
12:58 AM,-9.4,-14.8,77,30.50,10.0,Calm,Calm,-,N/A,,Clear,0,2014-02-11 06:58:00
1:19 AM,-9.4,-14.8,77,30.50,10.0,Calm,Calm,-,N/A,,Clear,0,2014-02-11 07:19:00
1:38 AM,-13.0,-16.6,84,30.50,10.0,Calm,Calm,-,N/A,,Clear,0,2014-02-11 07:38:00
1:58 AM,-11.2,-14.8,84,30.50,10.0,Calm,Calm,-,N/A,,Clear,0,2014-02-11 07:58:00
2:19 AM,-13.0,-18.4,77,30.51,10.0,Calm,Calm,-,N/A,,Clear,0,2014-02-11 08:19:00
2:38 AM,-11.2,-16.6,77,30.51,10.0,Calm,Calm,-,N/A,,Clear,0,2014-02-11 08:38:00
2:58 AM,-14.8,-18.4,84,30.50,10.0,Calm,Calm,-,N/A,,Clear,0,2014-02-11 08:58:00
3:19 AM,-13.0,-16.6,84,30.50,10.0,Calm,Calm,-,N/A,,Clear,0,2014-02-11 09:19:00
3:38 AM,-14.8,-18.4,84,30.50,10.0,Calm,Calm,-,N/A,,Clear,0,2014-02-11 09:38:00
3:58 AM,-16.6,-22.0,76,30.49,10.0,Calm,Calm,-,N/A,,Clear,0,2014-02-11 09:58:00
4:19 AM,-16.6,-22.0,76,30.49,10.0,Calm,Calm,-,N/A,,Clear,0,2014-02-11 10:19:00
4:38 AM,-16.6,-22.0,76,30.50,10.0,Calm,Calm,-,N/A,,Clear,0,2014-02-11 10:38:00
4:58 AM,-16.6,-22.0,76,30.50,10.0,Calm,Calm,-,N/A,,Clear,0,2014-02-11 10:58:00
5:19 AM,-16.6,-23.8,70,30.50,10.0,Calm,Calm,-,N/A,,Clear,0,2014-02-11 11:19:00
5:38 AM,-14.8,-20.2,77,30.50,10.0,Calm,Calm,-,N/A,,Clear,0,2014-02-11 11:38:00
5:58 AM,-16.6,-22.0,76,30.50,10.0,Calm,Calm,-,N/A,,Clear,0,2014-02-11 11:58:00
6:18 AM,-16.6,-22.0,76,30.50,10.0,Calm,Calm,-,N/A,,Clear,0,2014-02-11 12:18:00
6:38 AM,-18.4,-23.8,76,30.50,10.0,Calm,Calm,-,N/A,,Clear,0,2014-02-11 12:38:00
6:59 AM,-18.4,-23.8,76,30.50,10.0,Calm,Calm,-,N/A,,Clear,0,2014-02-11 12:59:00
7:18 AM,-18.4,-23.8,76,30.50,10.0,Calm,Calm,-,N/A,,Clear,0,2014-02-11 13:18:00
7:38 AM,-16.6,-23.8,70,30.50,10.0,Calm,Calm,-,N/A,,Clear,0,2014-02-11 13:38:00
7:59 AM,-16.6,-23.8,70,30.49,10.0,Calm,Calm,-,N/A,,Clear,0,2014-02-11 13:59:00
8:18 AM,-14.8,-22.0,70,30.49,10.0,Calm,Calm,-,N/A,,Clear,0,2014-02-11 14:18:00
8:38 AM,-13.0,-18.4,77,30.48,10.0,Calm,Calm,-,N/A,,Clear,0,2014-02-11 14:38:00
8:58 AM,-9.4,-16.6,71,30.48,10.0,Calm,Calm,-,N/A,,Clear,0,2014-02-11 14:58:00
9:18 AM,-9.4,-14.8,77,30.48,10.0,Calm,Calm,-,N/A,,Clear,0,2014-02-11 15:18:00
9:39 AM,-7.6,-13.0,77,30.48,10.0,Calm,Calm,-,N/A,,Clear,0,2014-02-11 15:39:00
9:58 AM,-5.8,-11.2,77,30.47,10.0,SE,4.6,-,N/A,,Clear,130,2014-02-11 15:58:00
10:18 AM,-2.2,-7.6,78,30.46,10.0,SE,5.8,-,N/A,,Clear,130,2014-02-11 16:18:00
10:39 AM,-0.4,-7.6,72,30.45,10.0,SE,5.8,-,N/A,,Clear,130,2014-02-11 16:39:00
10:58 AM,1.4,-7.6,66,30.45,10.0,SE,5.8,-,N/A,,Clear,130,2014-02-11 16:58:00
11:18 AM,3.2,-7.6,61,30.45,10.0,ESE,5.8,-,N/A,,Clear,120,2014-02-11 17:18:00
11:39 AM,6.8,-4.0,61,30.44,10.0,ESE,4.6,-,N/A,,Clear,120,2014-02-11 17:39:00
11:58 AM,10.4,-4.0,52,30.43,10.0,South,8.1,-,N/A,,Clear,170,2014-02-11 17:58:00
12:18 PM,12.2,-2.2,53,30.42,10.0,South,6.9,-,N/A,,Clear,180,2014-02-11 18:18:00
12:38 PM,12.2,-2.2,53,30.41,10.0,South,5.8,-,N/A,,Clear,190,2014-02-11 18:38:00
12:58 PM,12.2,-2.2,53,30.39,10.0,South,5.8,-,N/A,,Clear,170,2014-02-11 18:58:00
1:19 PM,14.0,-0.4,53,30.38,10.0,South,9.2,-,N/A,,Clear,190,2014-02-11 19:19:00
1:38 PM,14.0,-0.4,53,30.37,10.0,SSW,9.2,-,N/A,,Clear,210,2014-02-11 19:38:00
1:58 PM,14.0,-0.4,53,30.35,10.0,South,6.9,-,N/A,,Clear,170,2014-02-11 19:58:00
2:18 PM,14.0,-0.4,53,30.34,10.0,South,5.8,-,N/A,,Clear,190,2014-02-11 20:18:00
2:38 PM,14.0,-0.4,53,30.33,10.0,SSW,9.2,-,N/A,,Clear,200,2014-02-11 20:38:00
2:59 PM,14.0,-0.4,53,30.32,10.0,South,9.2,16.1,N/A,,Clear,190,2014-02-11 20:59:00
3:19 PM,14.0,-0.4,53,30.32,10.0,SSW,9.2,-,N/A,,Clear,200,2014-02-11 21:19:00
3:38 PM,14.0,-0.4,53,30.32,10.0,South,10.4,-,N/A,,Clear,190,2014-02-11 21:38:00
3:58 PM,14.0,-0.4,53,30.30,10.0,South,8.1,-,N/A,,Clear,190,2014-02-11 21:58:00
4:19 PM,14.0,-0.4,53,30.30,10.0,South,8.1,-,N/A,,Clear,190,2014-02-11 22:19:00
4:38 PM,14.0,-0.4,53,30.29,10.0,SSW,11.5,17.3,N/A,,Clear,200,2014-02-11 22:38:00
4:59 PM,14.0,-0.4,53,30.28,10.0,South,6.9,-,N/A,,Clear,190,2014-02-11 22:59:00
5:18 PM,12.2,-2.2,53,30.28,10.0,South,4.6,-,N/A,,Clear,180,2014-02-11 23:18:00
5:38 PM,12.2,-2.2,53,30.28,10.0,South,6.9,-,N/A,,Clear,180,2014-02-11 23:38:00
5:59 PM,10.4,-2.2,57,30.27,10.0,SSE,5.8,-,N/A,,Clear,160,2014-02-11 23:59:00
6:18 PM,10.4,-2.2,57,30.25,10.0,SSE,6.9,-,N/A,,Clear,160,2014-02-12 00:18:00
6:38 PM,10.4,-2.2,57,30.24,10.0,SSE,8.1,-,N/A,,Clear,160,2014-02-12 00:38:00
6:58 PM,10.4,-2.2,57,30.24,10.0,SSE,3.5,-,N/A,,Clear,150,2014-02-12 00:58:00
7:18 PM,10.4,-2.2,57,30.23,10.0,SSE,4.6,-,N/A,,Clear,150,2014-02-12 01:18:00
7:39 PM,10.4,-2.2,57,30.23,10.0,South,3.5,-,N/A,,Clear,170,2014-02-12 01:39:00
7:59 PM,10.4,-2.2,57,30.22,10.0,SSE,8.1,-,N/A,,Clear,150,2014-02-12 01:59:00
8:18 PM,10.4,-2.2,57,30.22,10.0,SSE,6.9,-,N/A,,Clear,160,2014-02-12 02:18:00
8:39 PM,10.4,-2.2,57,30.21,10.0,SSE,6.9,-,N/A,,Clear,150,2014-02-12 02:39:00
8:59 PM,10.4,-2.2,57,30.21,10.0,SSE,5.8,-,N/A,,Clear,150,2014-02-12 02:59:00
9:18 PM,10.4,-2.2,57,30.21,10.0,SSE,5.8,-,N/A,,Scattered Clouds,150,2014-02-12 03:18:00
9:39 PM,10.4,-2.2,57,30.21,10.0,SSE,6.9,-,N/A,,Overcast,160,2014-02-12 03:39:00
9:59 PM,10.4,-0.4,62,30.22,10.0,South,4.6,-,N/A,,Overcast,190,2014-02-12 03:59:00
10:18 PM,10.4,-0.4,62,30.21,10.0,South,6.9,-,N/A,,Overcast,170,2014-02-12 04:18:00
10:38 PM,10.4,-0.4,62,30.19,10.0,South,8.1,-,N/A,,Overcast,170,2014-02-12 04:38:00
10:59 PM,10.4,-0.4,62,30.19,10.0,South,8.1,16.1,N/A,,Overcast,190,2014-02-12 04:59:00
11:18 PM,12.2,-0.4,57,30.19,10.0,South,8.1,-,N/A,,Overcast,190,2014-02-12 05:18:00
11:38 PM,12.2,-0.4,57,30.19,10.0,South,10.4,18.4,N/A,,Overcast,190,2014-02-12 05:38:00
11:59 PM,12.2,1.4,62,30.18,10.0,South,5.8,-,N/A,,Overcast,190,2014-02-12 05:59:00